,,,PA_Meas_PMT16A,,PR_Meas_QMR101_102,,RH_Meas_QMH101,,SR_Meas_QMS101,,TA_Meas_QMH101,,GenWind,,GenWind,
date,time,status,PA,status,PR,status,RH,status,SR,status,TA,status,DirAvg,status,SpdAvg,
2011-08-03, 00:00:05,VALID,1010.684,VALID,0.0,VALID,102.238,VALID,0.0,VALID,24.064,VALID,345.0,VALID,0.435,
2011-08-03, 00:01:05,VALID,1010.676,VALID,0.0,VALID,102.307,VALID,0.0,VALID,24.025,VALID,345.0,VALID,0.3,
2011-08-03, 00:02:05,VALID,1010.647,VALID,0.0,VALID,102.406,VALID,0.0,VALID,24.006,VALID,345.0,VALID,0.335,
2011-08-03, 00:03:04,VALID,1010.64,VALID,0.0,VALID,102.505,VALID,0.0,VALID,23.986,VALID,345.0,VALID,0.065,
2011-08-03, 00:04:04,VALID,1010.638,VALID,0.0,VALID,102.544,VALID,0.0,VALID,23.947,VALID,345.0,VALID,0.433,
2011-08-03, 00:05:04,VALID,1010.633,VALID,0.0,VALID,102.643,VALID,0.0,VALID,23.928,VALID,345.0,VALID,0.411,
2011-08-03, 00:06:04,VALID,1010.645,VALID,0.0,VALID,102.757,VALID,0.0,VALID,23.889,VALID,345.0,VALID,0.484,
2011-08-03, 00:07:04,VALID,1010.629,VALID,0.0,VALID,102.887,VALID,0.0,VALID,23.869,VALID,345.0,VALID,0.593,
2011-08-03, 00:08:04,VALID,1010.654,VALID,0.0,VALID,103.039,VALID,0.0,VALID,23.85,VALID,345.0,VALID,0.351,
2011-08-03, 00:09:04,VALID,1010.658,VALID,0.0,VALID,103.161,VALID,0.0,VALID,23.85,VALID,345.0,VALID,0.205,
2011-08-03, 00:10:04,VALID,1010.657,VALID,0.0,VALID,103.184,VALID,0.0,VALID,23.85,VALID,345.0,VALID,0.0,
2011-08-03, 00:11:04,VALID,1010.691,VALID,0.0,VALID,103.192,VALID,0.0,VALID,23.83,VALID,345.0,VALID,0.0,
2011-08-03, 00:12:04,VALID,1010.722,VALID,0.0,VALID,103.146,VALID,0.0,VALID,23.83,VALID,345.0,VALID,0.0,
2011-08-03, 00:13:04,VALID,1010.704,VALID,0.0,VALID,103.115,VALID,0.0,VALID,23.811,VALID,345.0,VALID,0.418,
2011-08-03, 00:14:04,VALID,1010.704,VALID,0.0,VALID,103.085,VALID,0.0,VALID,23.83,VALID,345.0,VALID,0.332,
2011-08-03, 00:15:04,VALID,1010.678,VALID,0.0,VALID,103.009,VALID,0.0,VALID,23.83,VALID,345.0,VALID,0.377,
2011-08-03, 00:16:04,VALID,1010.697,VALID,0.0,VALID,102.955,VALID,0.0,VALID,23.811,VALID,345.0,VALID,0.121,
2011-08-03, 00:17:04,VALID,1010.687,VALID,0.0,VALID,102.894,VALID,0.0,VALID,23.79,VALID,345.0,VALID,0.102,
2011-08-03, 00:18:04,VALID,1010.677,VALID,0.0,VALID,102.879,VALID,0.106,VALID,23.79,VALID,345.0,VALID,0.195,
2011-08-03, 00:19:04,VALID,1010.689,VALID,0.0,VALID,102.826,VALID,0.106,VALID,23.77,VALID,345.0,VALID,0.213,
2011-08-03, 00:20:04,VALID,1010.713,VALID,0.0,VALID,102.818,VALID,0.106,VALID,23.77,VALID,345.0,VALID,0.393,
2011-08-03, 00:21:04,VALID,1010.713,VALID,0.0,VALID,102.894,VALID,0.106,VALID,23.772,VALID,345.0,VALID,0.282,
2011-08-03, 00:22:04,VALID,1010.703,VALID,0.0,VALID,102.932,VALID,0.0,VALID,23.731,VALID,345.0,VALID,0.012,
2011-08-03, 00:23:04,VALID,1010.668,VALID,0.0,VALID,102.978,VALID,0.0,VALID,23.752,VALID,345.0,VALID,0.0,
2011-08-03, 00:24:04,VALID,1010.679,VALID,0.0,VALID,103.024,VALID,0.106,VALID,23.712,VALID,345.0,VALID,0.0,
2011-08-03, 00:25:04,VALID,1010.676,VALID,0.0,VALID,102.993,VALID,0.0,VALID,23.713,VALID,345.0,VALID,0.0,
2011-08-03, 00:26:04,VALID,1010.672,VALID,0.0,VALID,103.009,VALID,0.0,VALID,23.694,VALID,345.0,VALID,0.0,
2011-08-03, 00:27:04,VALID,1010.657,VALID,0.0,VALID,103.047,VALID,0.106,VALID,23.694,VALID,345.0,VALID,0.0,
2011-08-03, 00:28:04,VALID,1010.689,VALID,0.0,VALID,103.085,VALID,0.0,VALID,23.694,VALID,345.0,VALID,0.0,
2011-08-03, 00:29:04,VALID,1010.703,VALID,0.0,VALID,103.085,VALID,0.0,VALID,23.673,VALID,345.0,VALID,0.133,
2011-08-03, 00:30:04,VALID,1010.7,VALID,0.0,VALID,103.115,VALID,0.106,VALID,23.713,VALID,345.0,VALID,0.0,
2011-08-03, 00:31:04,VALID,1010.703,VALID,0.0,VALID,103.062,VALID,0.0,VALID,23.713,VALID,345.0,VALID,0.0,
2011-08-03, 00:32:04,VALID,1010.712,VALID,0.0,VALID,103.047,VALID,0.106,VALID,23.713,VALID,345.0,VALID,0.0,
2011-08-03, 00:33:04,VALID,1010.663,VALID,0.0,VALID,103.062,VALID,0.106,VALID,23.694,VALID,345.0,VALID,0.0,
2011-08-03, 00:34:04,VALID,1010.652,VALID,0.0,VALID,103.024,VALID,0.0,VALID,23.713,VALID,345.0,VALID,0.021,
2011-08-03, 00:35:04,VALID,1010.624,VALID,0.0,VALID,103.016,VALID,0.0,VALID,23.733,VALID,345.0,VALID,0.0,
2011-08-03, 00:36:04,VALID,1010.597,VALID,0.0,VALID,103.039,VALID,0.106,VALID,23.712,VALID,345.0,VALID,0.143,
2011-08-03, 00:37:04,VALID,1010.558,VALID,0.0,VALID,103.016,VALID,0.0,VALID,23.751,VALID,345.0,VALID,0.37,
2011-08-03, 00:38:04,VALID,1010.554,VALID,0.0,VALID,102.978,VALID,0.0,VALID,23.772,VALID,345.0,VALID,0.263,
2011-08-03, 00:39:04,VALID,1010.547,VALID,0.0,VALID,102.902,VALID,0.106,VALID,23.791,VALID,345.0,VALID,0.231,
2011-08-03, 00:40:04,VALID,1010.539,VALID,0.0,VALID,102.849,VALID,0.0,VALID,23.791,VALID,345.0,VALID,0.234,
2011-08-03, 00:41:04,VALID,1010.533,VALID,0.0,VALID,102.826,VALID,0.0,VALID,23.77,VALID,345.0,VALID,0.278,
2011-08-03, 00:42:04,VALID,1010.501,VALID,0.0,VALID,102.818,VALID,0.106,VALID,23.772,VALID,345.0,VALID,0.207,
2011-08-03, 00:43:04,VALID,1010.483,VALID,0.0,VALID,102.803,VALID,0.0,VALID,23.772,VALID,345.0,VALID,0.254,
2011-08-03, 00:44:04,VALID,1010.479,VALID,0.0,VALID,102.788,VALID,0.106,VALID,23.751,VALID,345.0,VALID,0.204,
2011-08-03, 00:45:04,VALID,1010.505,VALID,0.0,VALID,102.78,VALID,0.106,VALID,23.731,VALID,345.0,VALID,0.345,
2011-08-03, 00:46:04,VALID,1010.485,VALID,0.0,VALID,102.772,VALID,0.0,VALID,23.713,VALID,345.0,VALID,0.387,
2011-08-03, 00:47:04,VALID,1010.507,VALID,0.0,VALID,102.788,VALID,0.106,VALID,23.733,VALID,345.0,VALID,0.293,
2011-08-03, 00:48:04,VALID,1010.471,VALID,0.0,VALID,102.849,VALID,0.106,VALID,23.733,VALID,345.0,VALID,0.004,
2011-08-03, 00:49:04,VALID,1010.436,VALID,0.0,VALID,102.902,VALID,0.0,VALID,23.713,VALID,345.0,VALID,0.0,
2011-08-03, 00:50:04,VALID,1010.429,VALID,0.0,VALID,102.993,VALID,0.106,VALID,23.712,VALID,345.0,VALID,0.129,
2011-08-03, 00:51:04,VALID,1010.411,VALID,0.0,VALID,102.986,VALID,0.106,VALID,23.731,VALID,345.0,VALID,0.102,
2011-08-03, 00:52:04,VALID,1010.431,VALID,0.0,VALID,102.887,VALID,0.0,VALID,23.733,VALID,345.0,VALID,0.304,
2011-08-03, 00:53:04,VALID,1010.389,VALID,0.0,VALID,102.841,VALID,0.106,VALID,23.713,VALID,345.0,VALID,0.481,
2011-08-03, 00:54:04,VALID,1010.398,VALID,0.0,VALID,102.826,VALID,0.106,VALID,23.692,VALID,345.0,VALID,0.505,
2011-08-03, 00:55:04,VALID,1010.387,VALID,0.0,VALID,102.826,VALID,0.106,VALID,23.673,VALID,345.0,VALID,0.441,
2011-08-03, 00:56:04,VALID,1010.371,VALID,0.0,VALID,102.955,VALID,0.0,VALID,23.675,VALID,345.0,VALID,0.359,
2011-08-03, 00:57:04,VALID,1010.345,VALID,0.0,VALID,103.054,VALID,0.106,VALID,23.634,VALID,345.0,VALID,0.332,
2011-08-03, 00:58:04,VALID,1010.274,VALID,0.0,VALID,103.154,VALID,0.106,VALID,23.636,VALID,345.0,VALID,0.225,
2011-08-03, 00:59:04,VALID,1010.257,VALID,0.0,VALID,103.23,VALID,0.106,VALID,23.595,VALID,345.0,VALID,0.198,
2011-08-03, 01:00:04,VALID,1010.209,VALID,0.0,VALID,103.253,VALID,0.0,VALID,23.575,VALID,345.0,VALID,0.036,
2011-08-03, 01:01:04,VALID,1010.176,VALID,0.0,VALID,103.306,VALID,0.0,VALID,23.577,VALID,345.0,VALID,0.08,
2011-08-03, 01:02:04,VALID,1010.174,VALID,0.0,VALID,103.352,VALID,0.106,VALID,23.556,VALID,345.0,VALID,0.179,
2011-08-03, 01:03:04,VALID,1010.172,VALID,0.0,VALID,103.42,VALID,0.0,VALID,23.538,VALID,345.0,VALID,0.195,
2011-08-03, 01:04:04,VALID,1010.218,VALID,0.0,VALID,103.481,VALID,0.0,VALID,23.519,VALID,345.0,VALID,0.112,
2011-08-03, 01:05:04,VALID,1010.214,VALID,0.0,VALID,103.52,VALID,0.0,VALID,23.54,VALID,345.0,VALID,0.189,
2011-08-03, 01:06:04,VALID,1010.227,VALID,0.0,VALID,103.611,VALID,0.0,VALID,23.54,VALID,345.0,VALID,0.316,
2011-08-03, 01:07:04,VALID,1010.22,VALID,0.0,VALID,103.695,VALID,0.0,VALID,23.519,VALID,345.0,VALID,0.316,
2011-08-03, 01:08:04,VALID,1010.199,VALID,0.0,VALID,103.748,VALID,0.0,VALID,23.519,VALID,345.0,VALID,0.28,
2011-08-03, 01:09:04,VALID,1010.158,VALID,0.0,VALID,103.748,VALID,0.0,VALID,23.54,VALID,345.0,VALID,0.134,
2011-08-03, 01:10:04,VALID,1010.145,VALID,0.0,VALID,103.771,VALID,0.0,VALID,23.54,VALID,345.0,VALID,0.002,
2011-08-03, 01:11:04,VALID,1010.098,VALID,0.0,VALID,103.832,VALID,0.0,VALID,23.54,VALID,345.0,VALID,0.206,
2011-08-03, 01:12:04,VALID,1010.083,VALID,0.0,VALID,103.947,VALID,0.0,VALID,23.558,VALID,345.0,VALID,0.192,
2011-08-03, 01:13:04,VALID,1010.042,VALID,0.0,VALID,103.97,VALID,0.0,VALID,23.558,VALID,345.0,VALID,0.191,
2011-08-03, 01:14:04,VALID,1010.028,VALID,0.0,VALID,103.909,VALID,0.0,VALID,23.577,VALID,345.0,VALID,0.119,
2011-08-03, 01:15:04,VALID,1010.018,VALID,0.0,VALID,103.855,VALID,0.0,VALID,23.597,VALID,345.0,VALID,0.027,
2011-08-03, 01:16:04,VALID,1010.013,VALID,0.0,VALID,103.718,VALID,0.0,VALID,23.577,VALID,345.0,VALID,0.23,
2011-08-03, 01:17:04,VALID,1010.008,VALID,0.0,VALID,103.588,VALID,0.0,VALID,23.579,VALID,345.0,VALID,0.423,
2011-08-03, 01:18:04,VALID,1010.031,VALID,0.0,VALID,103.52,VALID,0.0,VALID,23.559,VALID,345.0,VALID,0.399,
2011-08-03, 01:19:04,VALID,1010.016,VALID,0.0,VALID,103.527,VALID,0.0,VALID,23.519,VALID,345.0,VALID,0.417,
2011-08-03, 01:20:04,VALID,1010.011,VALID,0.0,VALID,103.558,VALID,0.0,VALID,23.519,VALID,345.0,VALID,0.475,
2011-08-03, 01:21:04,VALID,1010.005,VALID,0.0,VALID,103.596,VALID,0.0,VALID,23.52,VALID,345.0,VALID,0.408,
2011-08-03, 01:22:04,VALID,1009.998,VALID,0.0,VALID,103.596,VALID,0.0,VALID,23.48,VALID,345.0,VALID,0.464,
2011-08-03, 01:23:04,VALID,1010.004,VALID,0.0,VALID,103.634,VALID,0.0,VALID,23.501,VALID,345.0,VALID,0.429,
2011-08-03, 01:24:04,VALID,1009.985,VALID,0.0,VALID,103.672,VALID,0.0,VALID,23.481,VALID,345.0,VALID,0.39,
2011-08-03, 01:25:04,VALID,1009.984,VALID,0.0,VALID,103.687,VALID,0.0,VALID,23.441,VALID,345.0,VALID,0.274,
2011-08-03, 01:26:04,VALID,1009.99,VALID,0.0,VALID,103.672,VALID,0.0,VALID,23.421,VALID,345.0,VALID,0.33,
2011-08-03, 01:27:04,VALID,1009.989,VALID,0.0,VALID,103.68,VALID,0.0,VALID,23.423,VALID,345.0,VALID,0.322,
2011-08-03, 01:28:04,VALID,1009.98,VALID,0.0,VALID,103.71,VALID,0.0,VALID,23.404,VALID,345.0,VALID,0.127,
2011-08-03, 01:29:04,VALID,1009.948,VALID,0.0,VALID,103.733,VALID,0.0,VALID,23.363,VALID,345.0,VALID,0.146,
2011-08-03, 01:30:04,VALID,1009.945,VALID,0.0,VALID,103.779,VALID,0.0,VALID,23.363,VALID,345.0,VALID,0.29,
2011-08-03, 01:31:04,VALID,1009.93,VALID,0.0,VALID,103.817,VALID,0.0,VALID,23.384,VALID,345.0,VALID,0.173,
2011-08-03, 01:32:04,VALID,1009.884,VALID,0.0,VALID,103.878,VALID,0.0,VALID,23.363,VALID,345.0,VALID,0.029,
2011-08-03, 01:33:04,VALID,1009.887,VALID,0.0,VALID,103.909,VALID,0.106,VALID,23.363,VALID,345.0,VALID,0.251,
2011-08-03, 01:34:04,VALID,1009.855,VALID,0.0,VALID,103.97,VALID,0.0,VALID,23.343,VALID,345.0,VALID,0.138,
2011-08-03, 01:35:04,VALID,1009.846,VALID,0.0,VALID,103.992,VALID,0.0,VALID,23.343,VALID,345.0,VALID,0.173,
2011-08-03, 01:36:04,VALID,1009.831,VALID,0.0,VALID,104.0,VALID,0.106,VALID,23.342,VALID,345.0,VALID,0.056,
2011-08-03, 01:37:04,VALID,1009.821,VALID,0.0,VALID,104.0,VALID,0.106,VALID,23.343,VALID,345.0,VALID,0.24,
2011-08-03, 01:38:04,VALID,1009.79,VALID,0.0,VALID,104.0,VALID,0.0,VALID,23.343,VALID,345.0,VALID,0.187,
2011-08-03, 01:39:04,VALID,1009.81,VALID,0.0,VALID,104.0,VALID,0.0,VALID,23.343,VALID,345.0,VALID,0.117,
2011-08-03, 01:40:04,VALID,1009.817,VALID,0.0,VALID,104.0,VALID,0.106,VALID,23.343,VALID,345.0,VALID,0.041,
2011-08-03, 01:41:04,VALID,1009.81,VALID,0.0,VALID,104.0,VALID,0.106,VALID,23.343,VALID,345.0,VALID,0.021,
2011-08-03, 01:42:04,VALID,1009.824,VALID,0.0,VALID,104.0,VALID,0.106,VALID,23.343,VALID,345.0,VALID,0.438,
2011-08-03, 01:43:04,VALID,1009.824,VALID,0.0,VALID,104.0,VALID,0.106,VALID,23.322,VALID,345.0,VALID,0.308,
2011-08-03, 01:44:04,VALID,1009.818,VALID,0.0,VALID,104.0,VALID,0.106,VALID,23.322,VALID,345.0,VALID,0.177,
2011-08-03, 01:45:04,VALID,1009.832,VALID,0.0,VALID,104.0,VALID,0.0,VALID,23.363,VALID,345.0,VALID,0.259,
2011-08-03, 01:46:04,VALID,1009.803,VALID,0.0,VALID,104.0,VALID,0.106,VALID,23.343,VALID,345.0,VALID,0.241,
2011-08-03, 01:47:04,VALID,1009.831,VALID,0.0,VALID,103.985,VALID,0.0,VALID,23.343,VALID,345.0,VALID,0.222,
2011-08-03, 01:48:04,VALID,1009.862,VALID,0.0,VALID,103.97,VALID,0.106,VALID,23.342,VALID,345.0,VALID,0.03,
2011-08-03, 01:49:04,VALID,1009.829,VALID,0.0,VALID,103.992,VALID,0.106,VALID,23.363,VALID,345.0,VALID,0.142,
2011-08-03, 01:50:04,VALID,1009.834,VALID,0.0,VALID,104.0,VALID,0.106,VALID,23.382,VALID,345.0,VALID,0.384,
2011-08-03, 01:51:04,VALID,1009.858,VALID,0.0,VALID,103.985,VALID,0.106,VALID,23.363,VALID,345.0,VALID,0.304,
2011-08-03, 01:52:04,VALID,1009.875,VALID,0.0,VALID,103.985,VALID,0.106,VALID,23.363,VALID,345.0,VALID,0.408,
2011-08-03, 01:53:04,VALID,1009.9,VALID,0.0,VALID,103.992,VALID,0.0,VALID,23.363,VALID,345.0,VALID,0.369,
2011-08-03, 01:54:04,VALID,1009.902,VALID,0.0,VALID,104.0,VALID,0.106,VALID,23.342,VALID,345.0,VALID,0.127,
2011-08-03, 01:55:04,VALID,1009.937,VALID,0.0,VALID,104.0,VALID,0.0,VALID,23.342,VALID,345.0,VALID,0.0,
2011-08-03, 01:56:04,VALID,1009.913,VALID,0.0,VALID,103.992,VALID,0.0,VALID,23.382,VALID,345.0,VALID,0.283,
2011-08-03, 01:57:04,VALID,1009.91,VALID,0.0,VALID,103.985,VALID,0.106,VALID,23.342,VALID,345.0,VALID,0.226,
2011-08-03, 01:58:04,VALID,1009.903,VALID,0.0,VALID,103.977,VALID,0.106,VALID,23.363,VALID,345.0,VALID,0.347,
2011-08-03, 01:59:04,VALID,1009.862,VALID,0.0,VALID,103.992,VALID,0.106,VALID,23.363,VALID,2.0,VALID,0.532,
2011-08-03, 02:00:04,VALID,1009.857,VALID,0.0,VALID,103.931,VALID,0.106,VALID,23.343,VALID,64.0,VALID,0.948,
2011-08-03, 02:01:04,VALID,1009.864,VALID,0.0,VALID,103.855,VALID,0.0,VALID,23.343,VALID,57.0,VALID,0.957,
2011-08-03, 02:02:04,VALID,1009.876,VALID,0.0,VALID,103.787,VALID,0.0,VALID,23.343,VALID,56.0,VALID,0.636,
2011-08-03, 02:03:04,VALID,1009.873,VALID,0.0,VALID,103.771,VALID,0.0,VALID,23.365,VALID,55.0,VALID,0.098,
2011-08-03, 02:04:04,VALID,1009.885,VALID,0.0,VALID,103.733,VALID,0.0,VALID,23.343,VALID,55.0,VALID,0.427,
2011-08-03, 02:05:04,VALID,1009.881,VALID,0.0,VALID,103.649,VALID,0.0,VALID,23.345,VALID,54.0,VALID,0.177,
2011-08-03, 02:06:04,VALID,1009.911,VALID,0.0,VALID,103.573,VALID,0.0,VALID,23.324,VALID,54.0,VALID,0.016,
2011-08-03, 02:07:04,VALID,1009.906,VALID,0.0,VALID,103.535,VALID,0.0,VALID,23.345,VALID,54.0,VALID,0.241,
2011-08-03, 02:08:04,VALID,1009.908,VALID,0.0,VALID,103.565,VALID,0.0,VALID,23.343,VALID,54.0,VALID,0.232,
2011-08-03, 02:09:04,VALID,1009.919,VALID,0.0,VALID,103.573,VALID,0.0,VALID,23.345,VALID,54.0,VALID,0.198,
2011-08-03, 02:10:04,VALID,1009.929,VALID,0.0,VALID,103.558,VALID,0.0,VALID,23.343,VALID,47.0,VALID,0.404,
2011-08-03, 02:11:04,VALID,1009.956,VALID,0.0,VALID,103.542,VALID,0.0,VALID,23.345,VALID,2.0,VALID,0.28,
2011-08-03, 02:12:04,VALID,1009.996,VALID,0.0,VALID,103.504,VALID,0.0,VALID,23.326,VALID,2.0,VALID,0.121,
2011-08-03, 02:13:04,VALID,1010.045,VALID,0.0,VALID,103.512,VALID,0.0,VALID,23.326,VALID,2.0,VALID,0.414,
2011-08-03, 02:14:04,VALID,1010.059,VALID,0.0,VALID,103.512,VALID,0.0,VALID,23.326,VALID,5.0,VALID,0.524,
2011-08-03, 02:15:04,VALID,1010.037,VALID,0.0,VALID,103.558,VALID,0.0,VALID,23.304,VALID,58.0,VALID,1.017,
2011-08-03, 02:16:04,VALID,1010.042,VALID,0.0,VALID,103.558,VALID,0.0,VALID,23.326,VALID,63.0,VALID,0.637,
2011-08-03, 02:17:04,VALID,1010.036,VALID,0.0,VALID,103.558,VALID,0.0,VALID,23.345,VALID,72.0,VALID,0.588,
2011-08-03, 02:18:04,VALID,1010.044,VALID,0.0,VALID,103.459,VALID,0.106,VALID,23.324,VALID,68.0,VALID,0.659,
2011-08-03, 02:19:04,VALID,1010.001,VALID,0.0,VALID,103.428,VALID,0.0,VALID,23.343,VALID,62.0,VALID,0.434,
2011-08-03, 02:20:04,VALID,1009.973,VALID,0.0,VALID,103.344,VALID,0.106,VALID,23.343,VALID,40.0,VALID,0.507,
2011-08-03, 02:21:04,VALID,1009.933,VALID,0.0,VALID,103.253,VALID,0.0,VALID,23.363,VALID,40.0,VALID,0.443,
2011-08-03, 02:22:04,VALID,1009.938,VALID,0.0,VALID,103.085,VALID,0.106,VALID,23.343,VALID,40.0,VALID,0.308,
2011-08-03, 02:23:04,VALID,1009.953,VALID,0.0,VALID,103.016,VALID,0.106,VALID,23.363,VALID,40.0,VALID,0.302,
2011-08-03, 02:24:04,VALID,1009.964,VALID,0.0,VALID,103.054,VALID,0.0,VALID,23.363,VALID,40.0,VALID,0.047,
2011-08-03, 02:25:04,VALID,1009.976,VALID,0.0,VALID,103.085,VALID,0.106,VALID,23.382,VALID,40.0,VALID,0.0,
2011-08-03, 02:26:04,VALID,1010.0,VALID,0.0,VALID,103.077,VALID,0.0,VALID,23.361,VALID,40.0,VALID,0.0,
2011-08-03, 02:27:04,VALID,1009.993,VALID,0.0,VALID,103.039,VALID,0.0,VALID,23.361,VALID,40.0,VALID,0.223,
2011-08-03, 02:28:04,VALID,1010.024,VALID,0.0,VALID,103.001,VALID,0.106,VALID,23.382,VALID,40.0,VALID,0.193,
2011-08-03, 02:29:04,VALID,1009.998,VALID,0.0,VALID,102.879,VALID,0.106,VALID,23.342,VALID,40.0,VALID,0.256,
2011-08-03, 02:30:04,VALID,1010.014,VALID,0.0,VALID,102.864,VALID,0.0,VALID,23.382,VALID,40.0,VALID,0.213,
2011-08-03, 02:31:04,VALID,1010.0,VALID,0.0,VALID,102.864,VALID,0.106,VALID,23.382,VALID,40.0,VALID,0.154,
2011-08-03, 02:32:04,VALID,1009.976,VALID,0.0,VALID,102.955,VALID,0.0,VALID,23.402,VALID,40.0,VALID,0.0,
2011-08-03, 02:33:04,VALID,1009.976,VALID,0.0,VALID,102.963,VALID,0.0,VALID,23.402,VALID,40.0,VALID,0.322,
2011-08-03, 02:34:04,VALID,1009.978,VALID,0.0,VALID,103.1,VALID,0.0,VALID,23.419,VALID,93.0,VALID,0.81,
2011-08-03, 02:35:04,VALID,1009.979,VALID,0.0,VALID,103.024,VALID,0.0,VALID,23.439,VALID,90.0,VALID,0.871,
2011-08-03, 02:36:04,VALID,1009.974,VALID,0.0,VALID,102.65,VALID,0.0,VALID,23.441,VALID,84.0,VALID,1.114,
2011-08-03, 02:37:04,VALID,1009.945,VALID,0.0,VALID,102.566,VALID,0.106,VALID,23.46,VALID,74.0,VALID,0.745,
2011-08-03, 02:38:04,VALID,1009.954,VALID,0.0,VALID,102.704,VALID,0.0,VALID,23.48,VALID,56.0,VALID,0.806,
2011-08-03, 02:39:04,VALID,1009.935,VALID,0.0,VALID,102.284,VALID,0.0,VALID,23.46,VALID,33.0,VALID,0.359,
2011-08-03, 02:40:04,VALID,1009.888,VALID,0.0,VALID,102.223,VALID,0.106,VALID,23.458,VALID,34.0,VALID,0.419,
2011-08-03, 02:41:04,VALID,1009.883,VALID,0.0,VALID,102.208,VALID,0.106,VALID,23.48,VALID,34.0,VALID,0.149,
2011-08-03, 02:42:04,VALID,1009.866,VALID,0.0,VALID,102.193,VALID,0.106,VALID,23.458,VALID,34.0,VALID,0.398,
2011-08-03, 02:43:04,VALID,1009.83,VALID,0.0,VALID,102.086,VALID,0.0,VALID,23.458,VALID,34.0,VALID,0.536,
2011-08-03, 02:44:04,VALID,1009.792,VALID,0.0,VALID,102.124,VALID,0.106,VALID,23.499,VALID,34.0,VALID,0.316,
2011-08-03, 02:45:04,VALID,1009.806,VALID,0.0,VALID,102.078,VALID,0.106,VALID,23.499,VALID,36.0,VALID,0.748,
2011-08-03, 02:46:04,VALID,1009.773,VALID,0.0,VALID,102.033,VALID,0.106,VALID,23.458,VALID,37.0,VALID,0.504,
2011-08-03, 02:47:04,VALID,1009.776,VALID,0.0,VALID,102.147,VALID,0.106,VALID,23.458,VALID,37.0,VALID,0.343,
2011-08-03, 02:48:04,VALID,1009.758,VALID,0.0,VALID,102.055,VALID,0.106,VALID,23.48,VALID,36.0,VALID,0.553,
2011-08-03, 02:49:04,VALID,1009.735,VALID,0.0,VALID,102.139,VALID,0.106,VALID,23.439,VALID,33.0,VALID,0.409,
2011-08-03, 02:50:04,VALID,1009.689,VALID,0.0,VALID,102.231,VALID,0.0,VALID,23.441,VALID,33.0,VALID,0.058,
2011-08-03, 02:51:04,VALID,1009.655,VALID,0.0,VALID,102.338,VALID,0.0,VALID,23.46,VALID,33.0,VALID,0.1,
2011-08-03, 02:52:04,VALID,1009.64,VALID,0.0,VALID,102.353,VALID,0.106,VALID,23.441,VALID,33.0,VALID,0.0,
2011-08-03, 02:53:04,VALID,1009.587,VALID,0.0,VALID,102.376,VALID,0.0,VALID,23.4,VALID,33.0,VALID,0.315,
2011-08-03, 02:54:04,VALID,1009.585,VALID,0.0,VALID,102.284,VALID,0.0,VALID,23.38,VALID,64.0,VALID,0.379,
2011-08-03, 02:55:04,VALID,1009.566,VALID,0.0,VALID,102.269,VALID,0.0,VALID,23.402,VALID,56.0,VALID,0.674,
2011-08-03, 02:56:04,VALID,1009.559,VALID,0.0,VALID,102.391,VALID,0.0,VALID,23.402,VALID,50.0,VALID,0.466,
2011-08-03, 02:57:04,VALID,1009.536,VALID,0.0,VALID,102.406,VALID,0.0,VALID,23.402,VALID,19.0,VALID,0.477,
2011-08-03, 02:58:04,VALID,1009.528,VALID,0.0,VALID,102.437,VALID,0.0,VALID,23.402,VALID,39.0,VALID,0.671,
2011-08-03, 02:59:04,VALID,1009.54,VALID,0.0,VALID,102.513,VALID,0.0,VALID,23.402,VALID,39.0,VALID,0.14,
2011-08-03, 03:00:04,VALID,1009.523,VALID,0.0,VALID,102.551,VALID,0.106,VALID,23.38,VALID,39.0,VALID,0.119,
2011-08-03, 03:01:04,VALID,1009.527,VALID,0.0,VALID,102.582,VALID,0.0,VALID,23.363,VALID,39.0,VALID,0.152,
2011-08-03, 03:02:04,VALID,1009.516,VALID,0.0,VALID,102.597,VALID,0.0,VALID,23.322,VALID,39.0,VALID,0.196,
2011-08-03, 03:03:04,VALID,1009.527,VALID,0.0,VALID,102.627,VALID,0.0,VALID,23.324,VALID,39.0,VALID,0.256,
2011-08-03, 03:04:04,VALID,1009.527,VALID,0.0,VALID,102.734,VALID,0.0,VALID,23.324,VALID,39.0,VALID,0.278,
2011-08-03, 03:05:04,VALID,1009.506,VALID,0.0,VALID,102.765,VALID,0.0,VALID,23.345,VALID,41.0,VALID,0.357,
2011-08-03, 03:06:04,VALID,1009.494,VALID,0.0,VALID,102.841,VALID,0.0,VALID,23.326,VALID,41.0,VALID,0.397,
2011-08-03, 03:07:04,VALID,1009.461,VALID,0.0,VALID,102.879,VALID,0.0,VALID,23.285,VALID,41.0,VALID,0.411,
2011-08-03, 03:08:04,VALID,1009.463,VALID,0.0,VALID,102.978,VALID,0.0,VALID,23.306,VALID,41.0,VALID,0.175,
2011-08-03, 03:09:04,VALID,1009.416,VALID,0.0,VALID,103.024,VALID,0.0,VALID,23.285,VALID,41.0,VALID,0.0,
2011-08-03, 03:10:04,VALID,1009.409,VALID,0.0,VALID,103.039,VALID,0.0,VALID,23.306,VALID,41.0,VALID,0.0,
2011-08-03, 03:11:04,VALID,1009.386,VALID,0.0,VALID,103.1,VALID,0.0,VALID,23.306,VALID,41.0,VALID,0.098,
2011-08-03, 03:12:04,VALID,1009.385,VALID,0.0,VALID,103.032,VALID,0.0,VALID,23.306,VALID,41.0,VALID,0.523,
2011-08-03, 03:13:04,VALID,1009.348,VALID,0.0,VALID,103.108,VALID,0.0,VALID,23.265,VALID,41.0,VALID,0.081,
2011-08-03, 03:14:04,VALID,1009.34,VALID,0.0,VALID,103.085,VALID,0.0,VALID,23.287,VALID,41.0,VALID,0.471,
2011-08-03, 03:15:04,VALID,1009.34,VALID,0.0,VALID,102.932,VALID,0.0,VALID,23.267,VALID,41.0,VALID,0.164,
2011-08-03, 03:16:04,VALID,1009.329,VALID,0.0,VALID,102.894,VALID,0.0,VALID,23.287,VALID,41.0,VALID,0.108,
2011-08-03, 03:17:04,VALID,1009.284,VALID,0.0,VALID,102.833,VALID,0.0,VALID,23.287,VALID,41.0,VALID,0.023,
2011-08-03, 03:18:04,VALID,1009.296,VALID,0.0,VALID,102.81,VALID,0.0,VALID,23.265,VALID,41.0,VALID,0.0,
2011-08-03, 03:19:04,VALID,1009.281,VALID,0.0,VALID,102.765,VALID,0.0,VALID,23.265,VALID,41.0,VALID,0.248,
2011-08-03, 03:20:04,VALID,1009.25,VALID,0.0,VALID,102.757,VALID,0.0,VALID,23.287,VALID,41.0,VALID,0.0,
2011-08-03, 03:21:04,VALID,1009.239,VALID,0.0,VALID,102.833,VALID,0.0,VALID,23.306,VALID,41.0,VALID,0.185,
2011-08-03, 03:22:04,VALID,1009.236,VALID,0.0,VALID,102.803,VALID,0.0,VALID,23.306,VALID,41.0,VALID,0.148,
2011-08-03, 03:23:04,VALID,1009.269,VALID,0.0,VALID,102.765,VALID,0.0,VALID,23.287,VALID,41.0,VALID,0.264,
2011-08-03, 03:24:04,VALID,1009.246,VALID,0.0,VALID,102.757,VALID,0.0,VALID,23.306,VALID,41.0,VALID,0.19,
2011-08-03, 03:25:04,VALID,1009.249,VALID,0.0,VALID,102.81,VALID,0.0,VALID,23.287,VALID,41.0,VALID,0.152,
2011-08-03, 03:26:04,VALID,1009.286,VALID,0.0,VALID,102.81,VALID,0.0,VALID,23.285,VALID,41.0,VALID,0.318,
2011-08-03, 03:27:04,VALID,1009.267,VALID,0.0,VALID,102.78,VALID,0.0,VALID,23.326,VALID,104.0,VALID,0.574,
2011-08-03, 03:28:04,VALID,1009.238,VALID,0.0,VALID,102.673,VALID,0.0,VALID,23.304,VALID,117.0,VALID,0.836,
2011-08-03, 03:29:04,VALID,1009.254,VALID,0.0,VALID,102.467,VALID,0.0,VALID,23.326,VALID,90.0,VALID,0.87,
2011-08-03, 03:30:04,VALID,1009.229,VALID,0.0,VALID,102.345,VALID,0.0,VALID,23.345,VALID,75.0,VALID,0.848,
2011-08-03, 03:31:04,VALID,1009.234,VALID,0.0,VALID,102.307,VALID,0.0,VALID,23.365,VALID,78.0,VALID,0.731,
2011-08-03, 03:32:04,VALID,1009.24,VALID,0.0,VALID,102.033,VALID,0.0,VALID,23.343,VALID,81.0,VALID,0.716,
2011-08-03, 03:33:04,VALID,1009.275,VALID,0.0,VALID,101.911,VALID,0.0,VALID,23.384,VALID,96.0,VALID,0.791,
2011-08-03, 03:34:04,VALID,1009.259,VALID,0.0,VALID,101.865,VALID,0.0,VALID,23.363,VALID,92.0,VALID,0.481,
2011-08-03, 03:35:04,VALID,1009.303,VALID,0.0,VALID,101.857,VALID,0.0,VALID,23.404,VALID,73.0,VALID,0.542,
2011-08-03, 03:36:04,VALID,1009.295,VALID,0.0,VALID,101.834,VALID,0.0,VALID,23.404,VALID,68.0,VALID,0.732,
2011-08-03, 03:37:04,VALID,1009.291,VALID,0.0,VALID,101.811,VALID,0.0,VALID,23.404,VALID,68.0,VALID,0.507,
2011-08-03, 03:38:04,VALID,1009.287,VALID,0.0,VALID,101.888,VALID,0.0,VALID,23.402,VALID,68.0,VALID,0.45,